CARTOSAT-2B

Last updated on Thu Oct 30 2025 00:02:31 GMT+0000 (Coordinated Universal Time)

1 36795U 10035A 25302.45685590 .00001080 00000+0 15375-3 0 9995 2 36795 97.7918 352.9095 0011064 214.6688 145.3804 14.78762488825750
UTC large
Height (km)
Speed (km/s)
/
Latitude / Longitude
Inclination (degrees)
Orbital Period (minutes)
Azimuth
Elevation
Range (km)
Doppler Factor

Next 0 passes for location: London (51.5072 / 0.1276)

Sorry there are no passes over London.